Regional Weather Roundup
Issued by NWS

Home | Current Version | Previous Version | Text Only | Print | Product List | Glossary On
Versions: 1 2 3 4 5 6 7 8 9 10 11 12 13 14 15 16 17 18 19 20 21 22 23 24 25 26 27 28 29 30 31 32 33 34 35 36 37 38 39 40 41 42 43 44 45 46 47 48 49 50
000
ASUS44 KLUB 300201
RWRTX
WEST TEXAS WEATHER ROUNDUP
NATIONAL WEATHER SERVICE LUBBOCK TX
900 PM CDT SAT APR 29 2017

NOTE: "FAIR" INDICATES FEW OR NO CLOUDS BELOW 12,000 FEET WITH NO
SIGNIFICANT WEATHER AND/OR OBSTRUCTIONS TO VISIBILITY.

TXZ004-006>008-010-012-014-016-OKZ002-300300-
TEXAS PANHANDLE/OKLAHOMA PANHANDLE

CITY           SKY/WX    TMP DP  RH WIND       PRES   REMARKS
AMARILLO       LGT SNOW  33  32  96 NW18G32   29.86F VSB 1   WCI  22
BORGER         MIX PCPN  35  33  92 N24       29.85F WCI  23
CANADIAN       CLOUDY    41  40  95 N15G21    29.82R
DALHART        LGT SNOW  34  33  96 N28G37    29.92R FOG     WCI  21
DUMAS          CLOUDY    32  31  96 N29G40    29.88R WCI  18
GUYMON         MIX PCPN  35  33  92 N32G41    29.87F WCI  21
HEREFORD       LGT SNOW  34  34  98 N25G31    29.93S WCI  22
PAMPA          LGT SNOW  34  33  96 N22       29.83S WCI  23
PERRYTON       CLOUDY    37  36  95 N21G28    29.82S WCI  26
$$

TXZ026-029-035-045-048-300300-
SOUTHERN PANHANDLE/SOUTH PLAINS/ROLLING PLAINS

CITY           SKY/WX    TMP DP  RH WIND       PRES   REMARKS
CHILDRESS      LGT RAIN  45  40  82 NW13      29.84R
SEMINOLE       CLOUDY    42  35  77 N20G29    29.97R
LUBBOCK        MOCLDY    38  35  89 N18       29.90R WCI  28
PLAINVIEW      LGT RAIN  34  33  98 NW18G25   29.90R WCI  23
SNYDER         RAIN     N/A N/A N/A NW12      29.88R
$$

TXZ052-054-060>062-072-078-127-140-154-169-300300-
PERMIAN BASIN/CONCHO VALLEY/BIG COUNTRY/EDWARDS PLATEAU

CITY           SKY/WX    TMP DP  RH WIND       PRES   REMARKS
ABILENE        CLOUDY    53  42  66 NW18      29.80S
BIG SPRING     CLOUDY    48  42  80 NW18G26   29.92R
JUNCTION       CLOUDY    64  37  36 NW21G32   29.85R
MIDLAND        CLOUDY    49  40  71 NW22G31   29.91R
ODESSA         MOCLDY    48  41  76 N16G26    29.93R
SAN ANGELO     CLOUDY    60  34  37 W17G28    29.84S
SONORA         CLOUDY    59  34  38 NW13G23   29.93R
SWEETWATER     CLOUDY    51  44  76 W8        29.88R
WINK           CLEAR     47  37  68 NW23G31   29.95R
$$

TXZ055-058-074-075-080-082-300300-
FAR WEST/SOUTHWEST MOUNTAINS/TRANS PECOS

CITY           SKY/WX    TMP DP  RH WIND       PRES   REMARKS
ALPINE         MOCLDY    49  30  47 N6        30.01F
DRYDEN           N/A     63  29  27 NW13G23   29.89R
EL PASO        PTCLDY    54  28  36 N22       29.94R
FORT STOCKTON  CLOUDY    49  38  65 NW20G30   29.97R
GUADALUPE PASS CLEAR     40  34  79 E16       29.99R WCI  31
MARFA          CLOUDY    47  31  53 N9        29.97R
PECOS          PTCLDY    47  36  63 N16       29.98R
PRESIDIO       CLOUDY    60  32  34 N15       29.93R
$$

TXZ014-016-019-021>030-083-300300
TEXAS TECH WEST TEXAS MESONET/TEXAS PANHANDLE/NORTHERN SOUTH PLAINS

CITY           SKY/WX    TMP DP  RH WIND       PRES   REMARKS
ABERNATHY 5ENE   N/A     36  35  94 NW18      29.93R WCI  26
AMARILLO 9NNE    N/A     34  33  99 NW20      29.89S WCI  22
AMARILLO 7SSE    N/A     33  31  96 NW20      29.89R WCI  21
AMHERST 1NE      N/A     34  33  97 NW20      29.94R WCI  23
BOOTLEG 11WNW    N/A     31  30  96 NW26      29.96F WCI  17
CANADIAN 6E      N/A     40  38  93 N21       29.76F WCI  30
CAPROCK CYN SP   N/A     38  35  90 NW17      29.87R WCI  28
CHILDRESS 2NNE   N/A     44  40  88 W10       29.84R
CLARENDON 2WSW   N/A     36  33  89 N20       29.78F WCI  26
CLAUDE 12SW      N/A     33  32  94 NW16      29.85R WCI  23
DIMMITT 2NE      N/A     32  31  98 NW22G32   29.91S WCI  19
FLOYDADA 2NNE    N/A     36  35  98 NW17      29.89R WCI  25
FRIONA 2NE       N/A     32  32  99 N26       29.95R WCI  19
GOODLETT 3W      N/A     47  41  80 W13       29.82R
HART 3N          N/A     33  32  97 NW17      29.92R WCI  22
HEREFORD 2NW     N/A     32  32  99 NW21      29.92S WCI  20
MCLEAN 1E        N/A     37  36  96 NW20      29.77S WCI  27
MEMPHIS 1NE      N/A     43  38  85 NW9       29.82F
MULESHOE 2SSW    N/A     33  32  99 NW14      29.96R WCI  23
OLTON 6S         N/A     35  33  92 NW21      29.93R WCI  24
PALO DURO SP     N/A     33  31  94 NW23      29.88S WCI  20
PAMPA 2E         N/A     33  32  99 NW20      29.82S WCI  21
PLAINVIEW 1S     N/A     35  34  96 NW14      29.91R WCI  26
SILVERTON 7ESE   N/A     35  33  91 NW18      29.86R WCI  25
TULIA 2ENE     LGT RAIN  33  33  99 NW18      29.90R WCI  22
TURKEY 2WSW      N/A     38  37  94 NW16      29.86R WCI  30
UMBARGER 3NNE    N/A     32  32  98 NW20      29.91S WCI  21
$$

TXZ033>036-039>041-045>048-300300
TEXAS TECH WEST TEXAS MESONET/SOUTH PLAINS

CITY           SKY/WX    TMP DP  RH WIND       PRES   REMARKS
AIKEN 3WSW       N/A     36  35  95 NW18      29.91R WCI  25
ANDREWS 2NE      N/A     44  37  77 NW15G26   29.95R
ANTON 6SSW       N/A     36  34  93 NW20      29.93R WCI  25
BROWNFIELD 2S    N/A     39  35  84 NW18      29.93R WCI  30
DENVR CTY 7WNW   N/A     38  32  79 NW21      29.97R WCI  28
GAIL 2ESE        N/A     43  39  86 NW15      29.88S
LAMESA 2SE       N/A     42  39  87 NW16      29.92R
LEVELLAND 4S     N/A     36  32  87 NW23      29.92S WCI  24
LUBBOCK 3WNW     N/A     38  36  94 NW15      29.92R WCI  29
MORTON 1ENE      N/A     35  33  91 NW20      29.94S WCI  24
ODONNELL 1N      N/A     41  36  82 NW22      29.90S
PLAINS 3N        N/A     37  34  88 NW21      29.95R WCI  26
RALLS 1SE        N/A     38  34  85 NW17      29.89F WCI  28
REESE CENTER     N/A     36  34  92 NW21      29.91S WCI  25
SEAGRAVES 1SW    N/A     39  35  85 NW21      29.95R WCI  29
SEMINOLE 2NNE    N/A     41  34  76 NW21      29.95R
SLATON 2NE       N/A     39  36  89 NW16      29.91R WCI  30
SNYDER 3E        N/A     47  46  97 NW9       29.86R
SUNDOWN 8SW      N/A     36  34  90 NW20      29.94R WCI  25
TAHOKA 3NNE      N/A     39  35  84 NW21      29.90F WCI  29
WOLFFORTH 6SSW   N/A     38  35  89 NW22      29.91F WCI  27
$$

TXZ031-032-036>038-042>044-300300-
TEXAS TECH WEST TEXAS MESONET/ROLLING PLAINS

CITY           SKY/WX    TMP DP  RH WIND       PRES   REMARKS
ASPERMONT 3NE    N/A     46  43  88 NW8       29.82F
FLUVANNA 3WNW    N/A     43  38  84 NW17      29.88R
GRAHAM 5SSW      N/A     41  37  86 NW17      29.89R
GUTHRIE 10WSW    N/A     44  41  91 NW9       29.85F
HASKELL 1NW      N/A     50  39  67 NW17      29.81S
JAYTON 1SSE    LGT RAIN  45  43  91 NW10      29.85S
KNOX CITY 3NW    N/A     49  40  71 NW13      29.83F
LK A HENRY 1NW   N/A     43  37  81 NW18      29.88R
NORTHFIELD 1S    N/A     42  40  90 W13       29.86R
ODELL 4ENE       N/A     49  44  81 W14       29.80R
PADUCAH 10SW   LGT RAIN  43  41  91 NW13      29.84R
POST 1NE         N/A     42  37  84 NW13      29.89S
RRING SPRGS 3N   N/A     39  38  95 W15       29.88R WCI  30
SEYMOUR 3NW      N/A     51  41  70 W16       29.81R
SPUR 1W          N/A     42  38  86 NW17G26   29.86F
WEINERT 2NNE     N/A     50  40  70 NW12      29.82F
WHITE RVR 6NE    N/A     40  36  85 NW22G32   29.88R WCI  30
$$

TXZ052-054-060>062-072-078-127-140-154-169-300300-
TEXAS TECH WEST TEXAS MESONET/PERMIAN BASIN/
CONCHO VALLEY/BIG COUNTRY/EDWARDS PLATEAU

CITY           SKY/WX    TMP DP  RH WIND       PRES   REMARKS
COYANOSA 2N      N/A     49  36  61 NW18      29.99R
JUNCTION 1SSW    N/A     64  37  37 W21G31    29.86R
MERTZON 3NNE     N/A     57  33  40 W13       29.87R
SAN ANGELO 7NW   N/A     59  32  37 W13       29.85R
STRLNG CT 4WSW   N/A     52  40  63 W9        29.87S
ST LAWRNCE 5SW   N/A     53  39  60 W21       29.89R
SWEETWATR 11SW   N/A     50  44  79 W10       29.86R
WALL 1E          N/A     60  35  38 W26       29.86R
$$

TXZ055-058-074-075-080-082-300300-
TEXAS TECH WEST TEXAS MESONET/FAR WEST/SOUTHWEST MOUNTAINS/TRANS PECOS

CITY           SKY/WX    TMP DP  RH WIND       PRES   REMARKS
PRSMN GAP BBNP   N/A     65  21  18 NW1       29.91R
GUADLPE MTN NP   N/A     41  28  58 N10       29.99R
$$




USA.gov is the U.S. government's official web portal to all federal, state and local government web resources and services.